Zurück zum Katalog

STARLINK-32777

AktivKommunikationVLEO
NORAD 62525·PAYLOAD·🇺🇸 United States

Gestartet Jan 8, 2025 von Cape Canaveral Space Force Station

Loading…

Nächste Überflüge (nächste 24 Stunden)

TLE

AktuellSource: CelesTrak SupGP

Epoche: Sep 14, 2026, 21:08 UTC

1 62525C 25004Q   26257.88104167  .00032599  00000+0  11809-2 0  2573
2 62525  43.0022 231.7694 0001330 261.1201 289.0043 15.27557407    15

Verfolge STARLINK-32777 in Echtzeit mit AllMySat

Download on the App Store